Regional Weather Roundup
Issued by NWS Sterling, VA

Home | Current Version | Previous Version | Text Only | Print | Product List | Glossary On
Versions: 1 2 3 4 5 6 7 8 9 10 11 12 13 14 15 16 17 18 19 20 21 22 23 24 25 26 27 28
000
ASUS41 KLWX 272210
RWRLWX

REGIONAL WEATHER ROUNDUP
NATIONAL WEATHER SERVICE BALTIMORE MD/WASHINGTON DC
600 PM EDT SAT AUG 27 2016

Note: "FAIR" indicates few or no clouds below 12,000 feet
with no significant weather and/or obstructions to visibility.
 TC=TEMPERATURE CELSIUS

 * =Non NWS site. Station does not report precipitation (e.g. rain,
    snow, etc.), thunder, or fog.

DCZ001-MDZ009-015-VAZ040>042-051-053>054-272300-
WASHINGTON METRO

CITY           SKY/WX    TMP DP  RH WIND       PRES   REMARKS
WASHINGTON NAT MOSUNNY   89  65  44 SE6       30.13S HX  91
DULLES         MOSUNNY   89  63  41 S5        30.14S HX  90
ANDREWS AFB    SUNNY     87  62  43 E7        30.14S
FT BELVOIR     SUNNY     88  65  45 VRB3      30.13S
QUANTICO       SUNNY     89  65  44 SE6       30.13S HX  91
COLLEGE PARK*  SUNNY     88  64  45 NE6       30.13S
LEESBURG*      MOSUNNY   90  68  48 E7        30.14S HX  93
MANASSAS*      SUNNY     90  63  40 SE6       30.14S HX  90
GAITHERSBURG*  SUNNY     86  64  48 E5        30.18F

$$

MDZ006>007-011-014-272300-
BALTIMORE METRO

CITY           SKY/WX    TMP DP  RH WIND       PRES   REMARKS
BWI AIRPORT    MOSUNNY   87  63  44 E8        30.14S
MD SCIENCE CTR   N/A     88  63  43 MISG      30.14S
MARTIN STATE   MOSUNNY   88  64  45 E5        30.15S
ANNAPOLIS      SUNNY     88  66  48 NE6       30.13F HX  90
FORT MEADE*    SUNNY    N/A N/A N/A E5        30.16S

$$

MDZ012-015-019>023-272300-
MARYLAND EASTERN SHORE

CITY           SKY/WX    TMP DP  RH WIND       PRES   REMARKS
OCEAN CITY     SUNNY     80  72  76 NE12      30.14S
SALISBURY      SUNNY     85  68  56 E9        30.13S
BAY BRIDGE AP* SUNNY     84  72  65 N7        30.13F
CAMBRIDGE*     SUNNY     86  63  45 E3        30.13R

$$

MDZ017>025-272300-
SOUTHERN MARYLAND

CITY           SKY/WX    TMP DP  RH WIND       PRES   REMARKS
PATUXENT RIVER MOSUNNY   87  65  47 NE6       30.12F
ST INIGOES     SUNNY     88  64  44 NE5       30.11F
LEONARDTOWN*   SUNNY     86  64  48 NE5       30.14S

$$

MDZ003>005-272300-
NORTH CENTRAL MARYLAND

CITY           SKY/WX    TMP DP  RH WIND       PRES   REMARKS
FREDERICK*     MOSUNNY   88  72  58 VRB5      30.17S HX  94
HAGERSTOWN APT SUNNY     88  64  44 SE9       30.15S

$$

MDZ501>502-272300-
WESTERN MARYLAND

CITY           SKY/WX    TMP DP  RH WIND       PRES   REMARKS
OAKLAND*       SUNNY     79  64  61 SE8       30.26R
CUMBERLAND*    SUNNY     90  64  43 SE7       30.17S HX  91

$$

VAZ025>031-272300-
SHENANDOAH VALLEY

CITY           SKY/WX    TMP DP  RH WIND       PRES   REMARKS
WINCHESTER*    SUNNY     88  64  45 S6        30.15F
FRONT ROYAL*   FAIR      86  70  58 E5        30.14S HX  90
LURAY*         FAIR      88  68  51 E5        30.15S HX  91
NEW MARKET*    FAIR     N/A N/A N/A E6        30.13S
STAUNTON*      SUNNY     86  69  55 SE5       30.18S HX  90
WAYNESBORO*    FAIR      86  67  53 E6        30.18S

$$

WVZ021-048>050-054>055-272300-
EASTERN WEST VIRGINIA PANHANDLE

CITY           SKY/WX    TMP DP  RH WIND       PRES   REMARKS
MARTINSBURG    MOSUNNY   88  66  48 SE7       30.14S HX  90
PETERSBURG*    SUNNY     92  68  46 SE7       30.12S HX  96

$$

VAZ036>039-050-272300-
CENTRAL FOOTHILLS

CITY           SKY/WX    TMP DP  RH WIND       PRES   REMARKS
CHARLOTTESVILL MOSUNNY   90  67  46 SE7       30.14S HX  93
CULPEPER*      SUNNY     89  70  51 CALM      30.14S HX  94
ORANGE*          N/A     88  66  48 CALM      30.15F HX  90
GORDONSVILLE*  NOT AVBL
WARRENTON*     FAIR      90  59  35 E6        30.14S

$$

VAZ055>057-272300-
NORTH AND CENTRAL PIEDMONT

CITY           SKY/WX    TMP DP  RH WIND       PRES   REMARKS
FREDERICKSBRG*   N/A     90  62  39 NE8       30.12S HX  90
STAFFORD*      SUNNY     90  58  34 SE3       30.17S

$$

NCZ024-NYZ072-PAZ021-071-VAZ022-071-272300-
OTHER REGIONAL OBSERVATIONS

CITY           SKY/WX    TMP DP  RH WIND       PRES   REMARKS
NEW YORK CITY  SUNNY     82  58  43 VRB5      30.20S
PHILADELPHIA   CLOUDY    89  61  38 E8        30.14S
PITTSBURGH     PTSUNNY   88  65  46 S7        30.15R HX  90
ROANOKE        CLOUDY    87  72  60 SE10      30.14F HX  93
RICHMOND       MOSUNNY   89  62  40 E9        30.10F
RALEIGH        PTSUNNY   89  76  65 CALM      30.05F HX 100

$$

ANZ530>537-272300-
MARINE OBSERVATIONS

STATION/POSITION TIME  TEMP    WIND        PRES
                       AIR SEA DIR/SP/G
                 (UTC) (F)     (DEG/KT/KT) (MB)
THOMAS PT LIGHT  2200   84 84   30/  7/  7 1021.8F
BALT KEY BRIDGE  2142   85                   N/A
COVE POINT       2142   84                   N/A
LEWISETTA        2142   87 87                N/A
SOLOMONS ISLAND  2142   86 85                N/A
PINEY POINT      2124           60/  5/  6   N/A

$$





USA.gov is the U.S. government's official web portal to all federal, state and local government web resources and services.